Simultaneous Nadir Overpasses (SNOs) Predictions

Prediction of SNOs between LANDSAT-8 and NOAA-19 Satellite Orbit:

Table of predicted SNOs for the next 14.0 days since TLE Epoch: 8/20/2016
Index Date (LANDSAT-8) Time (LANDSAT-8) Lat,Lon (LANDSAT-8) SZA (LANDSAT-8 ) Date (NOAA-19) Time (NOAA-19) Lat,Lon (NOAA-19) SZA (NOAA-19 ) Distance(km) Time Diff (sec)
1 08/21/2016 12:05:54 75.25, 4.71 63.37 08/21/2016 12:04:44 75.32, 3.23 63.40 42.64 70
2 08/21/2016 12:55:27 -74.97, 171.61 116.92 08/21/2016 12:55:40 -74.95, 171.59 116.94 2.36 13
3 08/23/2016 17:39:45 -75.00, 100.61 116.14 08/23/2016 17:38:42 -75.02, 100.67 116.12 3.33 63
4 08/23/2016 18:29:11 74.97, -91.81 63.85 08/23/2016 18:29:38 74.94, -91.84 63.82 3.17 27
5 08/25/2016 23:13:28 75.04,-162.70 64.68 08/25/2016 23:12:40 75.04,-162.83 64.68 3.57 48
6 08/26/2016 00:02:57 -74.98, 4.75 115.38 08/26/2016 00:03:43 -74.96, 4.65 115.39 3.44 46
7 08/28/2016 04:47:15 -74.99, -66.27 114.58 08/28/2016 04:46:44 -74.99, -66.16 114.58 3.29 31
8 08/28/2016 05:36:41 74.96, 101.29 65.40 08/28/2016 05:37:40 74.95, 101.23 65.40 2.18 59
9 08/30/2016 10:20:58 75.03, 30.39 66.26 08/30/2016 10:20:41 75.01, 30.37 66.23 2.39 17
10 08/30/2016 11:10:30 -74.81,-162.53 113.96 08/30/2016 11:11:42 -74.80,-161.79 113.95 21.68 72
11 09/01/2016 15:54:44 -75.03, 126.95 112.94 09/01/2016 15:54:47 -75.03, 126.82 112.93 3.60 3




NCC Satellite Simultaneous Nadir Overpasses (SNOs) Prediction Service
